Date String (YYYY-MM-DD hh:mm:ss) UTC,Instrument flags,absolute air pressure of the measurement (hPa),sample flow rate (lpm),inlet stack bypass flow (lpm),air temperature of the measurement (°C),ambient temperature measured by the external sensor (°C),aerosol sample conditioner tube jacket temperature (°C),OPC LED temperature (°C),internal box temperature (°C),relative humidity of the measurement (%),span deviation,mass concentration of particles derived from Lorenz-Mie calculation of OPC scattering (μg/m³),mass concentration of particles derived from Lorenz-Mie calculation of OPC scattering (μg/m³),mass concentration of particles derived from Lorenz-Mie calculation of OPC scattering (μg/m³)
DateTimeUTC,F1_M11,P_M11,Q1_M11,Q2_M11,T1_M11,T2_M11,T3_M11,T4_M11,T5_M11,U1_M11,ZSPAN_M11,X0_M11,X2_M11,X1_M11
2023-07-01 11:00:00,SystemResetWarning,0833.8,5.00,000.00,029.5,028.0,000.0,038.2,031.0,18.2,0000.0,0004.46,0002.82,0002.47
2023-07-01 11:01:00,SystemResetWarning,0833.8,5.00,000.00,029.5,028.0,000.0,038.2,031.0,18.2,0000.0,0004.37,0002.82,0002.47
2023-07-01 11:02:00,SystemResetWarning,0833.9,5.00,000.00,029.6,028.0,000.0,038.2,031.0,18.1,0000.0,0004.59,0002.85,0002.47
2023-07-01 11:03:00,SystemResetWarning,0833.9,5.00,000.00,029.5,028.0,000.0,038.2,031.0,17.9,0000.0,0004.84,0002.86,0002.47
2023-07-01 11:04:00,SystemResetWarning,0833.9,5.00,000.00,029.5,028.0,000.0,038.2,031.0,17.9,0000.0,0004.73,0002.83,0002.47
2023-07-01 11:05:00,SystemResetWarning,0834.0,4.99,000.00,029.5,028.1,000.0,038.1,031.0,17.9,0000.0,0004.59,0002.80,0002.46
2023-07-01 11:06:00,SystemResetWarning,0833.9,5.00,000.00,029.6,028.1,000.0,038.2,031.0,17.8,0000.0,0004.63,0002.80,0002.46
2023-07-01 11:07:00,SystemResetWarning,0833.9,5.01,000.00,029.6,028.1,000.0,038.2,031.0,17.8,0000.0,0004.69,0002.79,0002.43
2023-07-01 11:08:00,SystemResetWarning,0833.9,5.01,000.00,029.5,028.1,000.0,038.2,031.0,17.7,0000.0,0004.21,0002.77,0002.42
2023-07-01 11:09:00,SystemResetWarning,0833.9,5.00,000.00,029.5,028.1,000.0,038.2,031.0,17.6,0000.0,0003.80,0002.76,0002.42
2023-07-01 11:10:00,SystemResetWarning,0833.9,5.00,000.00,029.5,028.1,000.0,038.2,031.0,17.5,0000.0,0003.81,0002.77,0002.40
2023-07-01 11:11:00,SystemResetWarning,0833.9,5.00,000.00,029.5,028.0,000.0,038.2,031.0,17.6,0000.0,0003.82,0002.77,0002.40
2023-07-01 11:12:00,SystemResetWarning,0833.9,5.00,000.00,029.5,028.1,000.0,038.2,031.0,17.7,0000.0,0003.79,0002.75,0002.40
2023-07-01 11:13:00,SystemResetWarning,0833.9,4.99,000.00,029.5,028.1,000.0,038.2,031.0,17.6,0000.0,0003.66,0002.72,0002.39
2023-07-01 11:14:00,SystemResetWarning,0833.9,5.00,000.00,029.5,028.1,000.0,038.2,031.0,17.5,0000.0,0003.34,0002.67,0002.39
2023-07-01 11:15:00,SystemResetWarning,0834.0,5.00,000.00,029.5,028.1,000.0,038.2,031.0,17.4,0000.0,0003.28,0002.67,0002.39
2023-07-01 11:16:00,SystemResetWarning,0834.0,5.01,000.00,029.5,028.1,000.0,038.1,031.0,17.8,0000.0,0003.37,0002.70,0002.38
2023-07-01 11:17:00,SystemResetWarning,0834.0,5.00,000.00,029.5,028.1,000.0,038.1,031.0,17.9,0000.0,0003.62,0002.78,0002.40
2023-07-01 11:18:00,SystemResetWarning,0834.0,5.00,000.00,029.5,028.0,000.0,038.1,031.0,18.0,0000.0,0003.65,0002.81,0002.41
2023-07-01 11:19:00,SystemResetWarning,0834.0,5.00,000.00,029.5,028.0,000.0,038.1,031.0,17.9,0000.0,0003.64,0002.81,0002.43
2023-07-01 11:20:00,SystemResetWarning,0834.0,5.01,000.00,029.5,028.0,000.0,038.1,031.0,18.0,0000.0,0003.57,0002.77,0002.44
2023-07-01 11:21:00,SystemResetWarning,0834.1,5.00,000.00,029.5,028.1,000.0,038.1,031.0,18.0,0000.0,0003.60,0002.76,0002.45
2023-07-01 11:22:00,SystemResetWarning,0834.1,5.00,000.00,029.5,028.1,000.0,038.1,031.0,17.9,0000.0,0003.69,0002.80,0002.47
2023-07-01 11:23:00,SystemResetWarning,0834.1,5.00,000.00,029.5,028.0,000.0,038.1,031.0,18.0,0000.0,0003.70,0002.81,0002.48
2023-07-01 11:24:00,SystemResetWarning,0834.1,5.00,000.00,029.5,028.0,000.0,038.1,031.0,17.8,0000.0,0003.74,0002.83,0002.49
2023-07-01 11:25:00,SystemResetWarning,0834.0,5.00,000.00,029.5,028.0,000.0,038.1,031.0,17.8,0000.0,0003.80,0002.86,0002.51
2023-07-01 11:26:00,SystemResetWarning,0834.1,5.00,000.00,029.5,028.0,000.0,038.1,031.0,17.5,0000.0,0003.79,0002.86,0002.50
2023-07-01 11:27:00,SystemResetWarning,0834.1,5.00,000.00,029.5,028.0,000.0,038.1,031.0,17.6,0000.0,0003.84,0002.88,0002.50
2023-07-01 11:28:00,SystemResetWarning,0834.1,5.00,000.00,029.5,028.0,000.0,038.1,031.0,17.9,0000.0,0003.65,0002.84,0002.50
2023-07-01 11:29:00,SystemResetWarning,0834.1,5.00,000.00,029.5,028.0,000.0,038.1,031.0,18.0,0000.0,0003.61,0002.85,0002.52
2023-07-01 11:30:00,SystemResetWarning,0834.1,5.00,000.00,029.5,028.0,000.0,038.1,031.0,18.0,0000.0,0003.69,0002.87,0002.53
2023-07-01 11:31:00,SystemResetWarning,0834.1,5.00,000.00,029.5,028.0,000.0,038.1,031.0,18.0,0000.0,0003.85,0002.90,0002.53
2023-07-01 11:32:00,SystemResetWarning,0834.1,4.99,000.00,029.5,028.0,000.0,038.1,031.0,18.0,0000.0,0004.39,0002.89,0002.53
2023-07-01 11:33:00,SystemResetWarning,0834.1,5.00,000.00,029.5,028.0,000.0,038.1,031.0,17.8,0000.0,0004.38,0002.87,0002.51
2023-07-01 11:34:00,SystemResetWarning,0834.1,5.00,000.00,029.5,028.0,000.0,038.1,031.0,17.6,0000.0,0004.41,0002.89,0002.52
2023-07-01 11:35:00,SystemResetWarning,0834.2,5.00,000.00,029.5,028.0,000.0,038.1,031.0,17.6,0000.0,0004.36,0002.88,0002.52
2023-07-01 11:36:00,SystemResetWarning,0834.2,5.00,000.00,029.5,028.0,000.0,038.1,031.0,17.7,0000.0,0004.32,0002.86,0002.52
2023-07-01 11:37:00,SystemResetWarning,0834.2,5.00,000.00,029.5,028.0,000.0,038.1,031.0,17.6,0000.0,0004.37,0002.87,0002.52
2023-07-01 11:38:00,SystemResetWarning,0834.2,5.00,000.00,029.5,028.0,000.0,038.1,031.0,17.8,0000.0,0004.23,0002.82,0002.52
2023-07-01 11:39:00,SystemResetWarning,0834.2,5.00,000.00,029.5,028.0,000.0,038.1,031.0,18.3,0000.0,0004.20,0002.81,0002.52
2023-07-01 11:40:00,SystemResetWarning,0834.2,5.00,000.00,029.5,028.0,000.0,038.1,031.0,18.0,0000.0,0004.16,0002.79,0002.50
2023-07-01 11:41:00,SystemResetWarning,0834.4,5.00,000.00,029.5,028.0,000.0,038.1,031.0,17.8,0000.0,0004.18,0002.80,0002.50
2023-07-01 11:42:00,SystemResetWarning,0834.2,5.01,000.00,029.5,028.0,000.0,038.1,030.9,17.8,0000.0,0004.12,0002.81,0002.50
2023-07-01 11:43:00,SystemResetWarning,0834.5,5.00,000.00,029.5,028.0,000.0,038.1,030.9,17.8,0000.0,0003.45,0002.78,0002.50
2023-07-01 11:44:00,SystemResetWarning,0834.5,4.99,000.00,029.5,028.0,000.0,038.1,031.0,17.8,0000.0,0003.39,0002.79,0002.51
2023-07-01 11:45:00,SystemResetWarning,0834.4,5.00,000.00,029.5,028.1,000.0,038.1,031.0,17.7,0000.0,0003.38,0002.77,0002.50
2023-07-01 11:46:00,SystemResetWarning,0834.5,5.00,000.00,029.5,028.1,000.0,038.1,031.0,17.7,0000.0,0003.37,0002.77,0002.49
2023-07-01 11:47:00,SystemResetWarning,0834.3,5.01,000.00,029.5,028.1,000.0,038.1,031.0,17.6,0000.0,0003.44,0002.80,0002.50
2023-07-01 11:48:00,SystemResetWarning,0834.4,5.01,000.00,029.5,028.1,000.0,038.1,031.0,17.5,0000.0,0003.68,0002.80,0002.50
2023-07-01 11:49:00,SystemResetWarning,0834.5,5.00,000.00,029.5,028.1,000.0,038.1,031.0,17.6,0000.0,0003.81,0002.82,0002.50
2023-07-01 11:50:00,SystemResetWarning,0834.3,5.00,000.00,029.5,028.1,000.0,038.1,031.0,17.4,0000.0,0003.88,0002.85,0002.51
2023-07-01 11:51:00,SystemResetWarning,0834.3,5.00,000.00,029.5,028.1,000.0,038.1,031.0,17.4,0000.0,0003.95,0002.86,0002.51
2023-07-01 11:52:00,SystemResetWarning,0834.3,5.00,000.00,029.5,028.1,000.0,038.1,031.0,17.6,0000.0,0004.00,0002.87,0002.51
2023-07-01 11:53:00,SystemResetWarning,0834.3,4.99,000.00,029.5,028.1,000.0,038.1,031.0,17.6,0000.0,0004.00,0002.86,0002.51
2023-07-01 11:54:00,SystemResetWarning,0834.3,4.99,000.00,029.5,028.1,000.0,038.1,031.0,17.7,0000.0,0004.22,0002.90,0002.50
2023-07-01 11:55:00,SystemResetWarning,0834.4,4.99,000.00,029.5,028.1,000.0,038.1,031.0,17.8,0000.0,0004.49,0002.90,0002.49
2023-07-01 11:56:00,SystemResetWarning,0834.4,5.01,000.00,029.5,028.0,000.0,038.1,031.0,17.8,0000.0,0004.74,0002.93,0002.49
2023-07-01 11:57:00,SystemResetWarning,0834.4,5.01,000.00,029.5,028.0,000.0,038.1,031.0,17.8,0000.0,0004.75,0002.93,0002.49
2023-07-01 11:58:00,SystemResetWarning,0834.4,5.01,000.00,029.5,028.0,000.0,038.1,031.0,17.9,0000.0,0004.81,0002.89,0002.47
2023-07-01 11:59:00,SystemResetWarning,0834.4,5.00,000.00,029.5,028.0,000.0,038.1,031.0,17.9,0000.0,0004.67,0002.93,0002.49
